This demonstration page uses our WeatherBlox Daily Observations layout. Learn more.

Left ArrowRight Arrow

Hourly Observations for July 27, 2016

Temp ( °F °C ) Dew Point ( °F °C ) Humidity (%) Winds ( mph kmh ) Pressure ( in mb ) Visibility ( mi km ) Precip ( " mm )
12:15 am 00:15 Clear 74 23.5 65 18.5 74 74 SSE 8 13 29.94 1014 10 16 N/A
12:35 am 00:35 Mostly Cloudy with Thunderstorms 75 23.8 65 18.6 73 73 WNW 14 22 29.97 1015 10 16 N/A
12:55 am 00:55 Cloudy with Strong Thunderstorms 62 16.6 60 15.3 92 92 N 29 46 30.12 1020 1 1 0.62 15.75
1:15 am 01:15 Cloudy with Thunderstorms 63 17 61 16 94 94 N 13 20 30.12 1020 4 6 0.25 6.35
1:35 am 01:35 Cloudy with Thunderstorms 63 17.2 61 16.2 94 94 NE 12 19 30.12 1020 10 16 0.29 7.37
1:55 am 01:55 Mostly Cloudy 63 17.4 61 16.3 93 93 ENE 16 26 30.09 1019 10 16 0.33 8.38
2:15 am 02:15 Clear with Nearby Thunderstorms 63 17.3 61 16.1 93 93 ENE 12 19 30.06 1018 10 16 N/A
2:35 am 02:35 Clear 63 17.3 61 16 92 92 E 7 11 30.06 1018 10 16 N/A
2:55 am 02:55 Clear 63 17.1 61 16 93 93 SE 5 7 30.00 1016 10 16 N/A
3:15 am 03:15 Clear 63 17 60 15.7 92 92 E 5 7 30.03 1017 10 16 N/A
3:35 am 03:35 Clear 62 16.8 60 15.6 93 93 E 5 7 30.03 1017 10 16 N/A
3:55 am 03:55 Clear 62 16.8 60 15.7 93 93 N N/A 29.97 1015 10 16 N/A
4:15 am 04:15 Clear 63 17 60 15.8 93 93 SSE 3 6 29.97 1015 10 16 N/A
4:35 am 04:35 Clear 63 17 60 15.8 93 93 S 6 9 29.97 1015 10 16 N/A
4:55 am 04:55 Clear 62 16.7 60 15.7 94 94 N N/A 30.00 1016 10 16 N/A
5:15 am 05:15 Clear 62 16.4 60 15.5 94 94 W 5 7 30.00 1016 10 16 N/A
5:35 am 05:35 Clear 61 16.2 60 15.3 94 94 W 6 9 30.00 1016 10 16 N/A
5:55 am 05:55 Clear 61 16.3 60 15.4 94 94 W 6 9 30.00 1016 10 16 N/A
6:15 am 06:15 Clear 62 16.5 60 15.5 94 94 WNW 8 13 30.00 1016 10 16 0.01 0.25
6:35 am 06:35 Sunny 62 16.5 60 15.5 94 94 WNW 8 13 30.00 1016 10 16 0.01 0.25
6:55 am 06:55 Sunny 62 16.6 60 15.5 93 93 WNW 12 19 30.00 1016 10 16 0.01 0.25
7:15 am 07:15 Sunny 62 16.8 60 15.5 92 92 WNW 10 17 29.97 1015 10 16 N/A
7:35 am 07:35 Sunny 63 17.2 60 15.7 91 91 WNW 6 9 29.97 1015 10 16 N/A
7:55 am 07:55 Sunny 64 17.5 61 15.9 90 90 W 7 11 29.97 1015 10 16 N/A
8:15 am 08:15 Sunny 64 17.9 61 16 89 89 WNW 6 9 29.97 1015 10 16 N/A
8:35 am 08:35 Sunny 65 18.3 61 16.3 88 88 NW 3 6 29.97 1015 10 16 N/A
8:55 am 08:55 Sunny 66 18.9 62 16.4 86 86 WNW 6 9 29.97 1015 10 16 N/A
9:15 am 09:15 Sunny 67 19.5 62 16.7 84 84 WNW 5 7 30.00 1016 10 16 N/A
9:35 am 09:35 Sunny 68 20.2 63 17.1 82 82 NW 3 6 30.00 1016 10 16 N/A
9:55 am 09:55 Sunny 69 20.8 64 17.5 82 82 NW 8 13 29.97 1015 10 16 N/A
10:15 am 10:15 Sunny 72 22 65 18.1 79 79 NW 10 17 29.97 1015 10 16 0.04 1.02
10:35 am 10:35 Sunny with Thunderstorms 73 22.7 64 17.9 74 74 NW 6 9 29.97 1015 N/A 0.07 1.78
10:55 am 10:55 Sunny N/A N/A N/A NNW 6 9 N/A 10 16 0.07 1.78
11:15 am 11:15 Sunny 77 24.8 66 19 70 70 NW 9 15 29.94 1014 10 16 N/A
11:35 am 11:35 Sunny 78 25.5 67 19.4 69 69 NNW 7 11 29.94 1014 10 16 N/A
11:55 am 11:55 Sunny 79 25.9 67 19.3 67 67 NNW 7 11 29.97 1015 10 16 N/A
12:15 pm 12:15 Sunny 79 26.1 65 18.4 63 63 NW 5 7 29.97 1015 10 16 N/A
12:35 pm 12:35 Sunny 80 26.5 66 18.8 63 63 N N/A 29.97 1015 10 16 N/A
12:55 pm 12:55 Sunny 80 26.7 66 19 63 63 N N/A 29.94 1014 10 16 N/A
1:15 pm 13:15 Sunny 81 27 67 19.5 64 64 W 3 6 29.94 1014 10 16 N/A
1:35 pm 13:35 Sunny 82 27.5 68 20 64 64 N 7 11 29.94 1014 10 16 N/A
1:55 pm 13:55 Sunny 82 27.6 68 19.9 63 63 N 3 6 29.88 1012 10 16 N/A
2:15 pm 14:15 Sunny 83 28.2 69 20.7 64 64 ENE 7 11 29.88 1012 10 16 N/A
2:35 pm 14:35 Sunny 83 28.5 68 20 60 60 NE 7 11 29.88 1012 10 16 N/A
2:55 pm 14:55 Sunny 83 28.5 68 19.8 59 59 E 7 11 29.88 1012 10 16 N/A
3:15 pm 15:15 Sunny 83 28.5 69 20.7 63 63 E 10 17 29.88 1012 10 16 N/A
3:35 pm 15:35 Sunny 84 28.7 69 20.6 62 62 ESE 10 17 29.88 1012 10 16 N/A
3:55 pm 15:55 Sunny 83 28.6 69 20.6 62 62 SE 8 13 29.88 1012 10 16 N/A
4:15 pm 16:15 Partly Cloudy 84 28.7 70 20.9 63 63 ESE 7 11 29.88 1012 10 16 N/A
4:35 pm 16:35 Partly Cloudy 84 28.9 69 20.4 60 60 S 6 9 29.88 1012 10 16 N/A
4:55 pm 16:55 Partly Cloudy 84 28.9 69 20.3 60 60 SE 6 9 29.88 1012 10 16 N/A
5:15 pm 17:15 Mostly Cloudy 84 28.9 69 20.8 62 62 SSE 5 7 29.88 1012 10 16 N/A
5:35 pm 17:35 Cloudy 84 28.7 70 20.9 63 63 SE 6 9 29.88 1012 10 16 N/A
5:55 pm 17:55 Cloudy 83 28.2 68 20.2 62 62 ESE 5 7 29.88 1012 10 16 N/A
6:15 pm 18:15 Partly Cloudy 82 27.7 69 20.6 65 65 E 5 7 29.88 1012 10 16 N/A
6:35 pm 18:35 Sunny 83 28.1 69 20.5 63 63 ESE 3 6 29.88 1012 10 16 N/A
6:55 pm 18:55 Partly Cloudy 82 28 70 20.9 65 65 SSE 6 9 29.88 1012 10 16 N/A
7:15 pm 19:15 Partly Cloudy 82 27.7 69 20.5 65 65 ESE 5 7 29.88 1012 10 16 N/A
7:35 pm 19:35 Sunny 82 27.5 69 20.5 66 66 ENE 5 7 29.88 1012 10 16 N/A
7:55 pm 19:55 Sunny 81 27.1 69 20.6 68 68 E 5 7 29.91 1013 10 16 N/A
8:15 pm 20:15 Sunny 80 26.4 70 20.9 72 72 E 5 7 29.91 1013 10 16 N/A
8:35 pm 20:35 Sunny 78 25.7 70 21 75 75 E 6 9 29.91 1013 10 16 N/A
8:55 pm 20:55 Sunny 78 25.5 69 20.7 75 75 SE 5 7 29.91 1013 10 16 N/A
9:15 pm 21:15 Partly Cloudy with Light Rain 78 25.3 70 20.9 77 77 SE 3 6 29.91 1013 10 16 N/A
9:35 pm 21:35 Partly Cloudy with Drizzle 77 24.8 70 20.9 79 79 E 5 7 29.91 1013 10 16 N/A
9:55 pm 21:55 Clear 74 23.3 69 20.3 83 83 NE 6 9 29.97 1015 10 16 N/A
10:15 pm 22:15 Clear 73 22.5 68 20.1 86 86 NNE 6 9 29.97 1015 10 16 N/A
10:35 pm 22:35 Clear 71 21.9 67 19.4 86 86 NNE 5 7 29.97 1015 10 16 N/A
10:55 pm 22:55 Clear 70 21.3 64 17.9 81 81 NNE 6 9 30.00 1016 10 16 N/A
11:15 pm 23:15 Clear 69 20.8 64 17.6 82 82 NNE 6 9 30.00 1016 10 16 N/A
11:35 pm 23:35 Clear 68 20.2 63 17 82 82 NNE 7 11 30.03 1017 10 16 N/A
11:55 pm 23:55 Clear 67 19.7 64 17.5 87 87 NNE 6 9 30.03 1017 10 16 N/A

Powered by AerisWeather